Flag for Venezuela Weather past 2 weeks in Maracay, Venezuela

Now
79 °F

Clear.


Feels Like: 82 °F
Forecast: 68 / 92 °F
Wind: 5 mph from East

Location: Valencia Airport

Current Time: May 26, 2015 at 2:30:45 AM

Latest Report: May 26, 2015 at 1:30 AM


Visibility: 10 mi

Pressure: 29.98 "Hg

Humidity: 79%

Dew point: 72 °F

Location of MaracayLocation

Historic Weather in Maracay — Graph

°F

Maracay temperature yesterday

Maximum temperature yesterday: 93 °F (at 1:30 PM)
Minimum temperature yesterday: 79 °F (at 4:30 AM)
Average temperature yesterday: 86 °F

Past Weeks' High & Low Weather Summary

 TemperatureHumidityPressure
High97 °F (May 13, 2:30 PM)100% (May 14, 12:30 PM)30.09 "Hg (May 14, 12:30 PM)
Low37 °F (May 14, 12:30 PM)36% (May 17, 3:30 PM)29.83 "Hg (May 13, 4:30 AM)
Average85 °F61%29.97 "Hg
* Reported May 10 10:30 PM — May 25 10:30 PM, Maracay, Weather by CustomWeather, © 2015

Note: Actual official high and low records may vary slightly from our data, if they occured in-between our weather recording intervals... More about our weather records

Advertising

Maracay weather history for previous 24 hours

 ConditionsComfort  
Time TempWeatherWind HumidityBarometerVisibility
10:30 PM
Mon, May 25
82 °FPassing clouds.6 mph62%29.98 "HgN/A
9:30 PM82 °FPassing clouds.6 mph62%29.98 "HgN/A
8:30 PM81 °FPassing clouds.5 mph70%29.95 "HgN/A
7:30 PM82 °FPassing clouds.6 mph62%29.92 "HgN/A
6:30 PM84 °FPassing clouds.8 mph58%29.92 "HgN/A
5:30 PM90 °FScattered clouds.5 mph49%29.89 "HgN/A
4:30 PM91 °FScattered clouds.5 mph46%29.89 "HgN/A
3:30 PM91 °FScattered clouds.6 mph44%29.92 "HgN/A
2:30 PM93 °FPassing clouds.7 mph44%29.95 "HgN/A
1:30 PM93 °FPassing clouds.5 mph41%29.98 "HgN/A
12:30 PM91 °FPassing clouds.7 mph49%30.01 "HgN/A
11:30 AM90 °FPassing clouds.5 mph52%30.04 "HgN/A
10:30 AM88 °FPassing clouds.6 mph55%29.95 "HgN/A
9:30 AM86 °FPassing clouds.5 mph59%30.07 "HgN/A
8:30 AM84 °FPassing clouds.6 mph62%30.04 "HgN/A
7:30 AM82 °FPassing clouds.5 mph66%30.04 "HgN/A
6:30 AM79 °FPassing clouds.3 mph70%30.01 "HgN/A
5:30 AM79 °FPassing clouds.6 mph74%30.01 "HgN/A
4:30 AM79 °FPassing clouds.6 mph70%29.98 "HgN/A
Weather by CustomWeather, © 2015

See weather overviewHow to use our weather pages